Meteo Giornale » Osservazioni meteo Ungheria » Gyor Per

ore: 18:45 - Osservazioni Meteo Gyor Per
Lat. 47° 38' N Lon. 17° 48' E Alt. 129 metri s.l.m.

sereno Europe/Budapest

6 °C

Sereno

Temp. 24 Ore

-7 °C

8 °C

Nord

14.8 Km/h

Dew point -10 °C

Umidità 30 %

Visibilità  10 Km

Il sole sorge alle ore 06:25

Il sole tramonta alle ore 19:19

Data e Ora Cielo e Fenomeni T °C DP °C Um. % Pres. hPa Vis. km Vento km/h
Oggi h: 18:45 sereno Sereno 6 -10 30 1024 10 N 14.8
Oggi h: 18:15 sereno Sereno 7 -9 30 1023 10 N 13
Oggi h: 17:45 sereno Sereno 7 -10 28 1023 10 N/NO 14.8
Oggi h: 17:15 sereno Sereno 7 -9 30 1023 10 N 16.7
Oggi h: 16:45 sereno Sereno 7 -9 30 1023 10 NO 13
Oggi h: 16:15 sereno Sereno 8 -9 28 1023 10 NO 14.8
Oggi h: 15:45 sereno Sereno 7 -9 30 1024 10 N 11.1
Oggi h: 15:15 sereno Sereno 7 -8 33 1024 10 N 16.7
Oggi h: 14:45 sereno Sereno 7 -9 30 1024 10 N/NO 11.1
Oggi h: 14:15 sereno Sereno 7 -9 30 1024 10 N 13
Oggi h: 13:45 sereno Sereno 6 -11 28 1025 10 N 11.1
Oggi h: 13:15 sereno Sereno 7 -11 26 1025 10 N 11.1
Oggi h: 12:45 sereno Sereno 6 -10 30 1025 10 N/NE 9.3
Oggi h: 12:15 sereno Sereno 6 -7 38 1025 10 N 9.3
Oggi h: 11:45 sereno Sereno 5 -9 35 1026 10 N 11.1
Oggi h: 11:15 sereno Sereno 5 -9 35 1026 10 O 13
Oggi h: 10:45 sereno Sereno 4 -11 32 1026 10 O 13
Oggi h: 10:15 sereno Sereno 4 -8 41 1026 10 O/NO 11.1
Oggi h: 09:15 sereno Sereno 1 -7 55 1026 10 O 7.4
Oggi h: 08:15 sereno Sereno -2 -8 63 1026 10 O 7.4
Oggi h: 07:45 sereno Sereno -3 -7 73 1026 10 N 5.5
Oggi h: 07:15 sereno Sereno -6 -9 79 1026 10 N 5.5
Oggi h: 06:45 sereno Sereno -7 -10 79 1025 10 O/NO 9.3
Oggi h: 05:45 sereno Sereno -6 -10 73 1025 10 N 1.8
Oggi h: 05:15 sereno Sereno -6 -10 73 1025 10 N 3.7
Oggi h: 04:45 sereno Sereno -6 -9 79 1025 10 N 0
Oggi h: 04:15 sereno Sereno -6 -10 73 1025 10 N 3.7
Oggi h: 03:45 sereno Sereno -4 -9 68 1025 10 N 3.7
Oggi h: 03:15 sereno Sereno -3 -9 63 1025 10 N 5.5
Oggi h: 02:45 sereno Sereno -3 -9 63 1025 10 N 5.5
Oggi h: 02:15 sereno Sereno -2 -9 58 1024 10 N 3.7
Oggi h: 01:45 sereno Sereno -2 -10 54 1024 10 N 3.7
Oggi h: 00:15 sereno Sereno -2 -10 54 1024 10 N 3.7
Ieri h: 23:45 sereno Sereno -0 -10 46 1024 10 N 11.1
Ieri h: 23:15 sereno Sereno 0 -9 50 1024 10 N/NE 16.7
Ieri h: 22:45 sereno Sereno 1 -9 47 1024 10 N 14.8
Ieri h: 22:15 sereno Sereno 1 -9 47 1024 10 N 14.8
Ieri h: 21:45 sereno Sereno 2 -9 43 1024 10 N 16.7
Ieri h: 21:15 sereno Sereno 2 -9 43 1023 10 N 14.8
Ieri h: 20:45 sereno Sereno 3 -9 40 1023 10 N 16.7
Ieri h: 20:15 sereno Sereno 3 -9 40 1023 10 N 20.3
Ieri h: 19:45 sereno Sereno 3 -10 37 1022 10 N/NO 20.3